GAOFEN-12 02

Last updated on Sat Aug 15 2026 00:02:46 GMT+0000 (Coordinated Universal Time)

1 48079U 21026A 26226.62734097 .00000138 00000+0 24974-4 0 9996 2 48079 97.9963 224.5807 0006023 55.6427 304.5354 14.80335050290409
UTC large
Height (km)
Speed (km/s)
/
Latitude / Longitude
Inclination (degrees)
Orbital Period (minutes)
Azimuth
Elevation
Range (km)
Doppler Factor

Next 0 passes for location: London (51.5072 / 0.1276)

No passes found over London.
GAOFEN-12 02